Cloud_Cover
0 0 0 0 0 0 0 0 0 0 0 0 0 0 0 0 0 0 0 0 0 0 0 0 11 0 0 0 0 0 0 0 5 5 37 93 5 42 38 57 100 100 73 6
0 0 0 0 0 0 0 0 0 0 0 0 0 0 0 0 0 0 0 0 1 0 0 0 17 94 40 98 90 4 0 0 45 99 22 5 4 2 5 5 5 59 98 80
0 0 0 0 0 0 0 0 0 0 0 0 0 15 0 0 0 0 0 0 0 0 0 0 0 32 0 92 100 2 0 0 0 31 37 5 5 1 14 5 5 72 23 4
0 0 0 0 0 0 0 0 0 0 0 0 0 10 3 4 4 0 0 0 0 0 0 0 0 18 1 9 88 8 0 0 5 35 55 26 87 95 15 63 87 26 100 56
0 0 0 0 0 0 0 0 0 0 0 0 0 2 7 81 5 0 0 0 0 0 0 0 0 0 18 38 100 9 0 0 12 80 87 25 6 50 24 0 24 5 100 49
0 0 0 0 0 0 0 0 0 0 3 2 2 100 54 78 8 0 0 0 0 0 0 0 0 0 0 0 0 5 0 0 3 50 58 20 72 41 31 41 65 12 57 56
0 0 0 0 0 0 0 0 0 0 2 40 81 100 32 59 51 6 0 0 0 0 0 0 0 0 0 0 0 0 0 0 0 0 4 0 0 1 0 0 0 0 10 5
0 0 0 0 0 0 0 0 0 0 3 16 70 63 33 30 86 55 12 5 0 0 0 0 0 0 0 0 0 0 0 0 0 0 1 7 0 0 0 0 0 0 0 0
0 1 0 0 0 0 0 0 0 0 0 10 85 82 18 5 41 100 95 5 0 0 0 0 0 0 0 0 0 0 0 0 0 0 0 0 0 0 0 0 0 0 0 0
0 0 0 0 0 0 0 0 0 0 0 0 74 17 31 16 49 5 2 2 1 0 0 0 0 0 0 0 21 99 70 6 9 0 0 0 0 0 0 0 0 0 4 0
0 0 0 0 0 0 0 0 0 0 0 0 0 21 5 5 5 51 24 5 0 0 0 0 0 0 0 0 0 27 14 5 37 14 4 0 0 0 0 0 0 0 0 0
0 0 0 0 0 0 0 0 0 0 0 0 0 39 71 56 98 85 7 0 0 0 0 0 0 0 0 0 0 0 0 0 0 3 100 100 100 0 0 0 0 0 0 2
0 0 0 0 0 0 2 23 0 0 0 0 0 0 97 30 6 5 3 0 0 0 0 0 0 0 0 0 0 0 0 0 0 0 0 84 36 1 4 32 1 0 0 0
0 0 0 0 0 0 0 6 93 19 0 0 0 0 0 86 97 28 5 5 5 0 0 0 0 0 0 0 0 0 0 0 0 0 0 0 0 0 91 83 0 0 0 0
0 0 0 0 0 0 0 0 4 16 20 3 0 0 0 1 15 5 1 0 0 0 0 0 0 0 0 0 0 0 0 0 0 0 0 0 0 0 0 0 0 0 0 0
0 0 0 0 0 0 0 0 0 0 0 0 0 0 0 0 0 0 0 0 0 0 0 0 0 0 0 0 0 0 0 0 0 0 0 0 0 0 0 0 0 0 0 0
0 0 0 0 0 0 0 0 0 0 0 0 0 0 0 0 0 0 0 0 0 0 0 0 0 0 0 0 0 0 0 0 0 0 0 0 0 0 0 1 2 5 6 0
0 2 3 0 0 0 0 0 0 0 0 0 0 0 0 0 0 0 0 0 0 0 0 0 0 0 0 0 0 0 0 0 0 0 0 0 0 0 0 1 2 12 32 24
0 0 0 0 0 0 0 0 0 0 0 0 0 0 0 0 0 0 0 0 0 0 0 0 0 0 0 0 0 0 0 0 0 0 0 0 0 0 0 2 13 48 100 24
0 0 0 0 0 0 0 0 0 2 0 0 0 0 0 1 2 0 0 0 0 0 1 1 5 0 0 0 0 0 0 0 0 9 5 0 0 9 81 100 100 98 100 28
3 5 3 2 1 0 0 0 2 0 1 0 0 2 0 0 2 0 0 0 0 3 13 0 0 0 0 0 0 0 0 0 1 6 17 2 94 96 100 100 100 96 99 100
4 5 5 5 36 4 2 10 5 4 0 4 4 5 3 3 10 60 11 0 0 0 0 7 100 5 0 0 0 0 0 1 98 100 8 90 100 100 100 100 92 72 100 100
5 5 29 42 81 84 10 5 5 3 5 2 5 6 56 5 7 8 0 0 0 0 0 7 58 0 0 0 0 0 4 34 100 100 86 99 99 100 100 100 100 100 100 100
25 5 6 4 7 6 71 5 5 2 4 0 1 4 27 62 5 23 4 0 0 2 22 80 80 0 0 0 0 0 28 100 100 100 100 100 100 100 100 100 100 100 100 100
93 12 5 25 17 5 18 5 5 2 6 40 30 56 100 24 6 3 0 0 2 98 100 98 89 0 0 0 0 32 100 100 100 85 100 100 100 100 100 100 100 100 99 100
60 83 5 5 5 5 3 2 5 3 0 8 79 48 33 38 2 0 0 0 0 64 88 9 50 3 89 10 0 5 98 100 100 99 100 100 100 100 99 100 100 99 99 100